User: anonymous   Login
Location: *
(45.9500°N, 9.0833°E)
Time: 18:30:22
(UTC+00:00)
Language:

Explorer 7 - Orbit

View from above orbital plane
View from above orbital plane
View from above satellite
View from above satellite

Ground track
Ground track

The orbit data is extracted from the following two-line orbital elements,

1    22U 59009A   21169.17891238  .00000091  00000-0  29597-4 0  9991
2    22  50.2827 185.5390 0138566 216.5542 142.5887 14.95599632280058
Epoch (UTC): 18 June 2021 04:17:38
Eccentricity: 0.0138566
inclination: 50.2827°
perigee height: 484 km
apogee height: 677 km
right ascension of ascending node: 185.5390°
argument of perigee: 216.5542°
revolutions per day: 14.95599632
mean anomaly at epoch: 142.5887°
orbit number at epoch: 28005

The dashed part of the orbit path shows where the satellite is in the earth's shadow,  

DLR